sat.trackr.live / text

‹ back to catalog

BRO-21

NORAD 69007 · 2026-100AD

PAYLOAD ACTIVE UNKNOWN

§ Identity

Operator
Country
FR
Launch date
2026-05-03
Launch site
AFWTR
Launch vehicle
Mass (kg)
RCS (m²)

External: N2YO · Heavens-Above · Gunter

§ Orbital elements

Epoch: 2026-09-18T23:05:15.578304Z

Period
94.62 min
Inclination
97.3910°
Eccentricity
0.0009637
Mean motion
15.21905919 rev/d
Perigee alt
493.5 km
Apogee alt
506.7 km
Semi-major
6,878.2 km
B*
9.0626e-5
RAAN
158.2847°
Arg perigee
86.8252°
Mean anomaly
273.4087°
Rev number
2,106

§ Raw data

BRO-211 69007U 26100AD  26261.96198586  .00001996  00000+0  90626-4 0  99912 69007  97.3910 158.2847 0009637  86.8252 273.4087 15.21905919 21066

JSON: /api/v1/satellites/69007 · /tle

For live sub-satellite position, see the globe view (requires WebGL).

§ Visibility from observer

Set your observer location to see the next 7 days of passes ≥ 10°. The values pass through the URL so the page stays shareable.

No JS? Fill the form by hand. The geolocation button needs JavaScript.